www.pogodaiklimat.ru

Погода и климат >> Архив погоды >> Доминиканская Республика >> Sabana De La Mar


ПОГОДА в Sabana De La Mar

  • Прогноз погоды в Sabana De La Mar
  • Монитор погоды в Sabana De La Mar
  • Климат города

АРХИВ ПОГОДЫ в Sabana De La Mar

Время (UTC), дата Ветер
(напр.,м/с)
 
Видим.   Явления Облачность Т
(С)
Тd
(С)
f
(%)
Тe
(С)
Тes
(С)
Комфортность P
(гПа)
Po
(гПа)
Тmin
(С)
Tmax
(С)
R
(мм)
R24
(мм)
S
(см)
12 8.08 штиль 0 10 км пыль 5/5 450 м
[Cu med, cong]
+25.4 +24.0 92 +35 +37 очень
душно
1018.0 1018.0
15 8.08 В 4 10 км пыль {туман} 3/3 540 м
[Cu med, cong]
+30.4 +25.0 73 +44 +53 опасность
перегрева
1018.7 1019.0
18 8.08 В 4 10 км пыль {туман} 3/3 600 м
[Cu med, cong]
+31.0 +25.7 73 +46 +55 опасность
перегрева
1017.7 1018.0 +18.5 +31.4
00 9.08 В 3 10 км пыль {туман} 1/1 600 м
[Cu med, cong]
+28.0 +23.9 78 +39 +39 очень
душно
1017.1 1017.0 +18.5 +31.4
12 9.08 ЮВ 2 12 км пыль 1/1 600 м
[Cu med, cong]
+25.9 +23.3 86 +35 +38 очень
душно
1016.5 1017.0 +19.0 +31.4
15 9.08 В 4 12 км пыль {туман} 1/1 600 м
[Cu med, cong]
+31.0 +25.4 72 +45 +56 опасность
перегрева
1018.3 1018.0
18 9.08 В 5 12 км пыль {туман} 4/4 540 м
[Cb cap]
+31.4 +24.9 68 +45 +51 опасность
перегрева
1017.2 1017.0 +19.0 +32.0
21 9.08 ЮЗ 2 16 км {ливн. осадки} 6/5 540 м
[Cb cap Ci fib]
+28.4 +23.7 76 +39 +41 очень
душно
1016.0 1016.0 4
00 10.08 штиль 0 16 км {ливн. осадки} 1/1 600 м
[Cu hum]
+26.2 +25.1 94 +38 +38 очень
душно
1016.6 1017.0 +19.0 +32.0 0.3
12 10.08 штиль 0 16 км 3/1 600 м
[Cu med, cong Ci fib]
+24.8 +23.4 92 +33 +38 очень
душно
1017.0 1017.0 +17.0 +32.0
15 10.08 В 4 16 км 3/3 600 м
[Cu med, cong]
+29.8 +24.6 74 +42 +51 опасность
перегрева
1018.1 1018.0
18 10.08 В 4 16 км гроза без осадков 9/8 450 м
[Cb cap Ci fib]
+28.8 +24.4 77 +40 +43 очень
душно
1016.5 1017.0 +17.0 +30.8
00 11.08 штиль 0 16 км {гроза, дождь} 4/1 600 м
[Cu med, cong Ci fib]
+24.2 +22.8 92 +32 +32 очень
душно
1016.3 1016.0 +17.0 +30.8
12 11.08 ЮЗ 2 16 км 3/1 300 м
[Cu med, cong Ci fib]
+24.8 +22.3 86 +32 +35 очень
душно
1017.5 1018.0 +21.8 +30.8 0.4
15 11.08 В 3 16 км 4/4 540 м
[Cu med, cong]
+30.2 +24.8 73 +43 +52 опасность
перегрева
1019.0 1019.0
18 11.08 В 5 16 км 4/4 540 м
[Cb cap]
+30.4 +25.1 73 +44 +44 опасность
перегрева
1017.9 1018.0 +16.8 +31.5
21 11.08 В 4 16 км {гроза} 8/4 540 м
[Cb cap Ac As]
+28.6 +24.0 76 +40 +41 очень
душно
1016.8 1017.0
00 12.08 В 3 16 км {гроза} 5/5 450 м
[Cu med, cong]
+28.2 +25.0 83 +41 +41 опасность
перегрева
1017.7 1018.0 +16.8 +31.5
15 12.08 ЮВ 2 16 км {снег} 8/8 450 м
[Cb cap]
+27.2 +24.8 87 +39 +43 очень
душно
1019.1 1019.0 1
18 12.08 В 4 16 км {гроза, дождь} 9/4 540 м
[Cb cap Ac As]
+27.6 +24.3 82 +39 +42 очень
душно
1018.4 1018.0 +17.8 +31.5 1
21 12.08 В 4 16 км 9/4 540 м
[Cu med, cong Ac As]
+28.6 +24.2 77 +40 +41 очень
душно
1016.9 1017.0
00 13.08 В 4 16 км 9/4 540 м
[Cu med, cong Ac As]
+28.6 +24.2 77 +40 +40 очень
душно
1016.9 1017.0
12 13.08 штиль 0 16 км 1/1 540 м
[Cu med, cong]
+25.6 +24.0 91 +35 +40 очень
душно
1007.4 1007.0 +19.0 +31.5
15 13.08 СВ 5 16 км 4/4 600 м
[Cu med, cong]
+30.2 +24.8 73 +43 +49 опасность
перегрева
1018.5 1019.0
18 13.08 В 6 16 км {ливн. осадки} 5/5 540 м
[Cu med, cong]
+30.0 +25.1 75 +43 +47 опасность
перегрева
1017.1 1017.0 +19.0 +30.8 2
21 13.08 СВ 5 16 км 9/9 540 м
[Cb cap]
+29.6 +24.7 75 +42 +42 опасность
перегрева
1015.6 1016.0
00 14.08 В 3 16 км 5/5 540 м
[Cu med, cong]
+27.5 +24.4 83 +39 +39 очень
душно
1016.1 1016.0 +19.0 +31.0
12 14.08 штиль 0 16 км 9/5 300 м
[Cb cap Ac As]
+24.4 +23.6 95 +33 +34 очень
душно
1015.7 1016.0 +18.0 +31.0 9
15 14.08 С 2 16 км 9/6 450 м
[Cb cap As op]
+28.6 +25.1 81 +41 +44 опасность
перегрева
1016.5 1017.0
18 14.08 В 3 16 км 8/4 540 м
[Cb cap Ci fib]
+30.0 +26.0 79 +45 +53 опасность
перегрева
1015.9 1016.0 +18.0 +30.3
21 14.08 В 5 16 км 6/3 540 м
[Cb cap Ci fib]
+30.0 +24.0 70 +41 +43 опасность
перегрева
1014.9 1015.0
00 15.08 В 4 10 км гроза без осадков 10/10 450 м
[Cb cap]
+28.0 +24.2 80 +39 +39 очень
душно
1015.0 1015.0 +18.0 +30.3

 

Местоположение метеостанции Sabana De La Mar (Доминиканская Республика): широта 19.05 долгота -69.38 высота над уровнем моря 10 м.

В архиве по умолчанию представлена погода в Sabana De La Mar за последнюю неделю. Архивные данные за месяц целиком и за предыдущие месяцы, начиная с января 2011 года, Вы можете получить, выбрав интересующий диапазон дат из раскрывающегося списка и нажав кнопку "Ввод!".


*Определитесь, кто Вы:
робот инопланетянин человек

Внимание! Время в таблицах - всемирное. Для получения местного времени необходимо прибавить поправку, которая в Sabana De La Mar равна -4 ч.

Смотрите также архив погоды в соседних городах и на ближайших метеорологических станциях:

Погода в Las Americas (Доминиканская Республика) (75 км)
Погода в La Romana Int Airport (Доминиканская Республика) (82 км)
Погода в Santo Domingo (Доминиканская Республика) (87 км)
Погода в Punta Cana (Доминиканская Республика) (120 км)
Погода в Puerto Plata (Доминиканская Республика) (145 км)
Погода в Santiago (Доминиканская Республика) (146 км)
Погода в Barahona (Доминиканская Республика) (204 км)
Погода в Charlotte Amalie St. Thomas (Виргинские Острова) (472 км)
Погода в Punta de Maisi (Куба) (517 км)
Погода в Juliana Airport (Нидерландские Антилы) (671 км)

Пояснения к столбцам:

Ветер - указаны скорость ветра в м/с - средняя за 10 мин, порывы в срок и между сроками (в фигурных скобках) и направление, откуда дует ветер: С - северный, СВ - северо-восточный, В - восточный, ЮВ - юго-восточный, Ю - южный, ЮЗ - юго-западный, З - западный, СЗ - северо-западный.
Видимость - горизонтальная дальность видимости в метрах или километрах. При видимости от 1 до 10 км при отсутствии осадков обычно наблюдается дымка, при ухудшении видимости до 1 км и менее - туман. В сухую погоду видимость может ухудшаться дымом, пылью или мглою.
Явления - указаны атмосферные явления, наблюдавшиеся в срок или в последний час перед сроком; фигурными скобками обозначены явления, наблюдавшиеся между сроками (за 1-3 часа до срока); квадратными скобками обозначены град или гололедные отложения с указанием их диаметра в мм.
Облачность - указаны через наклонную черту общая и нижняя облачность в баллах и высота нижней границы облаков в метрах; квадратными скобками обозначены формы облаков: Ci - перистые, Cs - перисто-слоистые, Cc - перисто-кучевые, Ac - высококучевые, As - высокослоистые, Sc - слоисто-кучевые, Ns - слоисто-дождевые, Cu - кучевые, Cb - кучево-дождевые. Подробнее классификацию облаков см. в Атласе облаков (PDF).
T - Температура воздуха - температура, измеренная на высоте 2 м над землей.
Td - Температура точки росы - температура, при понижении до которой содержащийся в воздухе водяной пар достигнет насыщения.
f - Относительная влажность воздуха - влажноcть воздуха, измеренная на высоте 2 м над землей.
Te - Эффективная температура - температура, которую ощущает одетый по сезону человек в тени. Характеристика душности погоды. При расчете учитывается влияние влажности воздуха и скорости ветра на теплоощущения человека.
Tes - Эффективная температура на солнце - температура, которую ощущает человек, с поправкой на солнечный нагрев. Характеристика знойности погоды. Зависит от высоты солнца над горизонтом, облачности и скорости ветра. Ночью, в пасмурную погоду, а также при ветре 12 м/с и более поправка равна нулю.
P - Атмосферное давление - приведенное к уровню моря атмосферное давление.
Po - Атмосферное давление - измеренное на уровне метеостанции атмосферное давление.
Tmin - Минимальная температура - минимум температуры воздуха на высоте 2 м над землей.
Tmax - Максимальная температура - максимум температуры воздуха на высоте 2 м над землей.
R - Количество осадков - Количество выпавших осадков за период времени, мм. При наведении курсора мыши на число - период времени, за который выпало указанное количество осадков.
R24 - Количество осадков - Количество выпавших осадков за 24 часа, мм.
S - Снежный покров - Высота снежного покрова, см. При наведении курсора мыши на число - состояние снежного покрова и степень покрытия местности в баллах.